User: anonymous   Login
Location: Haram ta Haram Freeway
(35.0583°N, 51.4202°E)
Time: 19:15:52
(UTC+04:30)
Language:

ITAMSAT 1 - Orbit

View from above orbital plane
View from above orbital plane
View from above satellite
View from above satellite

Ground track
Ground track

The orbit data is extracted from the following two-line orbital elements,

1 22826U 93061D   21163.03291076 -.00000003  00000-0  16636-4 0  9990
2 22826  98.9113 180.4252 0009717  43.4162 316.7784 14.30455651445709
Epoch (UTC): 12 June 2021 00:47:23
Eccentricity: 0.0009717
inclination: 98.9113°
perigee height: 783 km
apogee height: 797 km
right ascension of ascending node: 180.4252°
argument of perigee: 43.4162°
revolutions per day: 14.30455651
mean anomaly at epoch: 316.7784°
orbit number at epoch: 44570

The dashed part of the orbit path shows where the satellite is in the earth's shadow,  

DLR